Weather History for KPGD - June, 2014

Change the Weather History Date:

Tuesday, June 17, 2014

  Actual Average Record
Temperature  
Mean Temperature 80 °F -  
Max Temperature 91 °F 88 °F 96 °F (2000)
Min Temperature 70 °F 70 °F 66 °F (2001)
Cooling Degree Days 16    
Growing Degree Days 30 (Base 50)    
Moisture  
Dew Point 70 °F    
Average Humidity 76    
Maximum Humidity 97    
Minimum Humidity 48    
Precipitation  
Precipitation 0.00 in - - ()
Sea Level Pressure  
Sea Level Pressure 30.12 in    
Wind  
Wind Speed 5 mph (East)    
Max Wind Speed 26 mph    
Max Gust Speed 32 mph    
Visibility 10 miles    
Events      
Averages and records for this station are not official NWS values.
T = Trace of Precipitation, MM = Missing Value Source: NWS Daily Summary

Daily Weather History Graph

Daily Weather History Graph

Search for Another Location

Airport or City:

Trip Planner

Search our weather history database for the weather conditions in past years. The results will help you decide how hot, cold, wet, or windy it might be!

Date:

Astronomy

Jun. 17, 2014 Rise Set
Actual Time 6:33 AM EDT 8:23 PM EDT
Civil Twilight 6:07 AM EDT 8:50 PM EDT
Nautical Twilight 5:35 AM EDT 9:22 PM EDT
Astronomical Twilight 5:02 AM EDT 9:55 PM EDT
Moon No Moon Rise 11:22 AM EDT (6/17)
Length of Visible Light 14h 42m
Length of Day
13h 49m
Waning Gibbous, 73% of the Moon is Illuminated
Jun 17
Waning Gibbous
Jun 19
Last Quarter
Jun 27
New
Jul 5
First Quarter
Jul 12
Full

Hourly Weather History & Observations

Time (EDT) Temp. Heat Index Dew Point Humidity Pressure Visibility Wind Dir Wind Speed Gust Speed Precip Events Conditions
12:53 AM 73.0 °F - 70.0 °F 90% 30.15 in 10.0 mi ENE 4.6 mph - N/A   Clear
1:53 AM 72.0 °F - 69.1 °F 91% 30.14 in 10.0 mi Calm Calm - N/A   Clear
2:53 AM 72.0 °F - 69.1 °F 91% 30.11 in 10.0 mi Calm Calm - N/A   Clear
3:53 AM 71.1 °F - 69.1 °F 93% 30.10 in 9.0 mi NE 4.6 mph - N/A   Clear
4:49 AM 71.6 °F - 69.8 °F 94% 30.10 in 8.0 mi NNE 3.5 mph - N/A   Partly Cloudy
4:53 AM 71.1 °F - 69.1 °F 93% 30.10 in 8.0 mi NNE 3.5 mph - N/A   Partly Cloudy
5:53 AM 70.0 °F - 69.1 °F 97% 30.12 in 5.0 mi NE 4.6 mph - N/A   Clear
6:53 AM 70.0 °F - 69.1 °F 97% 30.14 in 6.0 mi Calm Calm - N/A   Clear
7:53 AM 73.9 °F - 71.1 °F 91% 30.15 in 10.0 mi ENE 4.6 mph - N/A   Clear
8:53 AM 79.0 °F - 72.0 °F 79% 30.16 in 10.0 mi NE 5.8 mph - N/A   Clear
9:53 AM 82.0 °F 86.7 °F 72.0 °F 71% 30.17 in 10.0 mi ENE 3.5 mph - N/A   Partly Cloudy
10:53 AM 82.9 °F 87.0 °F 70.0 °F 65% 30.17 in 10.0 mi ESE 5.8 mph - N/A   Scattered Clouds
11:53 AM 87.1 °F 92.0 °F 70.0 °F 57% 30.16 in 10.0 mi North - - N/A   Partly Cloudy
12:53 PM 88.0 °F 92.1 °F 69.1 °F 53% 30.14 in 10.0 mi NE 6.9 mph 16.1 mph N/A   Partly Cloudy
1:53 PM 90.0 °F 94.5 °F 69.1 °F 50% 30.12 in 10.0 mi NNE 9.2 mph - N/A   Partly Cloudy
2:53 PM 91.0 °F 95.6 °F 69.1 °F 48% 30.10 in 10.0 mi ENE 11.5 mph - N/A   Clear
3:35 PM 80.1 °F 83.2 °F 70.0 °F 71% 30.12 in 10.0 mi ESE 26.5 mph 32.2 mph N/A   Mostly Cloudy
3:53 PM 82.0 °F 85.9 °F 70.0 °F 67% 30.12 in 10.0 mi SE 15.0 mph 25.3 mph N/A   Scattered Clouds
4:53 PM 82.0 °F 85.9 °F 70.0 °F 67% 30.12 in 10.0 mi SE 12.7 mph - N/A   Partly Cloudy
5:53 PM 84.0 °F 87.0 °F 68.0 °F 58% 30.10 in 10.0 mi ESE 9.2 mph - N/A   Clear
6:53 PM 84.9 °F 88.8 °F 69.1 °F 59% 30.08 in 10.0 mi East 9.2 mph - N/A   Clear
7:53 PM 81.0 °F 84.1 °F 69.1 °F 67% 30.08 in 10.0 mi ENE 5.8 mph - N/A   Clear
8:51 PM 78.8 °F - 69.8 °F 74% 30.10 in 10.0 mi ESE 5.8 mph - N/A   Partly Cloudy
8:53 PM 78.1 °F - 69.1 °F 74% 30.11 in 10.0 mi ESE 5.8 mph - N/A   Partly Cloudy
9:53 PM 77.0 °F - 70.0 °F 79% 30.12 in 10.0 mi ESE 5.8 mph - N/A   Clear
10:53 PM 75.0 °F - 70.0 °F 84% 30.14 in 10.0 mi East 6.9 mph - N/A   Clear
11:53 PM 73.0 °F - 70.0 °F 90% 30.14 in 10.0 mi East 4.6 mph - N/A   Clear